Flag Weather past 2 weeks in Istanbul, Turkey

Now
48 °F

Partly cloudy.


Feels Like: 45 °F
Forecast: 47 / 50 °F
Wind: 8 mph from North

Location: Istanbul Ataturk Airport

Current Time: Nov 23, 2014 at 11:18:18 PM

Latest Report: Nov 23, 2014 at 10:50 PM


Visibility: N/A

Pressure: 30.30 "Hg

Humidity: 66%

Dew point: 37 °F

Location of IstanbulLocation

Historic Weather in Istanbul — Graph

°F

Istanbul temperature yesterday

Maximum temperature yesterday: 46 °F (at 12:20 AM)
Minimum temperature yesterday: 43 °F (at 4:50 AM)
Average temperature yesterday: 45 °F

Past Weeks' High & Low Weather Summary

 TemperatureHumidityPressure
High70 °F (Nov 19, 2:50 PM)94% (Nov 9, 3:50 AM)30.33 "Hg (Nov 9, 3:50 AM)
Low43 °F (Nov 22, 4:50 AM)38% (Nov 9, 12:50 PM)29.89 "Hg (Nov 13, 10:20 PM)
Average57 °F78%30.07 "Hg
* Reported Nov 8 9:20 PM — Nov 23 9:50 PM, Istanbul, Weather by CustomWeather, © 2014

Note: Actual official high and low records may vary slightly from our data, if they occured in-between our weather recording intervals... More about our weather records

Advertising

Istanbul weather history for previous 24 hours

 ConditionsComfort  
Time TempWeatherWind HumidityBarometerVisibility
9:50 PM
Nov 23
50 °FPassing clouds.9 mph58%30.30 "HgN/A
9:20 PM50 °FPassing clouds.8 mph58%30.30 "HgN/A
8:50 PM50 °FPassing clouds.8 mph58%30.30 "HgN/A
8:20 PM50 °FPassing clouds.9 mph62%30.30 "HgN/A
7:50 PM50 °FPassing clouds.9 mph62%30.30 "HgN/A
7:20 PM50 °FPassing clouds.12 mph62%30.30 "HgN/A
6:50 PM50 °FPassing clouds.9 mph67%30.30 "HgN/A
6:20 PM50 °FPassing clouds.13 mph71%30.30 "HgN/A
5:50 PM50 °FPassing clouds.8 mph71%30.30 "HgN/A
5:20 PM48 °FPassing clouds.10 mph76%30.30 "HgN/A
4:50 PM50 °FPassing clouds.9 mph76%30.30 "HgN/A
4:20 PM50 °FPartly sunny.9 mph76%30.30 "HgN/A
3:50 PM48 °FMore clouds than sun.9 mph82%30.27 "HgN/A
3:20 PM48 °FBroken clouds.12 mph82%30.27 "HgN/A
2:50 PM48 °FBroken clouds.9 mph82%30.27 "HgN/A
2:20 PM48 °FBroken clouds.15 mph82%30.27 "HgN/A
1:50 PM48 °FBroken clouds.14 mph82%30.27 "HgN/A
1:20 PM48 °FBroken clouds.15 mph82%30.30 "HgN/A
12:50 PM46 °FBroken clouds.13 mph87%30.30 "HgN/A
12:20 PM46 °FBroken clouds.13 mph87%30.30 "HgN/A
11:50 AM46 °FBroken clouds.13 mph82%30.33 "HgN/A
11:20 AM46 °FMore clouds than sun.10 mph82%30.33 "HgN/A
10:50 AM46 °FMore clouds than sun.10 mph76%30.33 "HgN/A
10:20 AM46 °FOvercast.10 mph71%30.33 "HgN/A
9:50 AM46 °FPartly sunny.12 mph71%30.33 "HgN/A
9:20 AM46 °FBroken clouds.13 mph71%30.33 "HgN/A
8:50 AM46 °FBroken clouds.12 mph71%30.33 "HgN/A
8:20 AM46 °FBroken clouds.14 mph66%30.33 "HgN/A
7:50 AM46 °FBroken clouds.12 mph66%30.33 "HgN/A
7:20 AM46 °FBroken clouds.10 mph66%30.30 "HgN/A
6:50 AM46 °FPartly cloudy.10 mph66%30.30 "HgN/A
6:20 AM46 °FPartly cloudy.10 mph66%30.30 "HgN/A
5:50 AM45 °FPartly cloudy.10 mph71%30.30 "HgN/A
5:20 AM46 °FPartly cloudy.9 mph66%30.30 "HgN/A
4:50 AM46 °FPartly cloudy.10 mph66%30.30 "HgN/A
4:20 AM45 °FPartly cloudy.9 mph71%30.30 "HgN/A
3:50 AM46 °FPartly cloudy.10 mph66%30.30 "HgN/A
3:20 AM45 °FPartly cloudy.9 mph71%30.30 "HgN/A
2:50 AM46 °FPartly cloudy.10 mph66%30.30 "HgN/A
2:20 AM46 °FPartly cloudy.9 mph66%30.30 "HgN/A
1:50 AM46 °FPartly cloudy.7 mph66%30.30 "HgN/A
1:20 AM46 °FPartly cloudy.12 mph66%30.30 "HgN/A
12:50 AM46 °FPartly cloudy.9 mph71%30.30 "HgN/A
12:20 AM46 °FPartly cloudy.10 mph71%30.30 "HgN/A
11:50 PM
Nov 22
46 °FPartly cloudy.12 mph71%30.30 "HgN/A
11:20 PM46 °FPartly cloudy.10 mph76%30.30 "HgN/A
Weather by CustomWeather, © 2014

See weather overviewHow to use our weather pages